Location: Unspecified
(0.0000°N, 0.0000°E)
Time: 18:04:31
(UTC+00:00)

Explorer 7 - Visible Passes

Search period start: 18 January 2020 00:00
Search period end: 28 January 2020 00:00
Orbit: 485 x 679 km, 50.3° (Epoch: 17 January)

Date Brightness Start Highest point End Pass type
(mag) Time Alt. Az. Time Alt. Az. Time Alt. Az.
21 Jan 9.6 20:27:17 10° SSW 20:27:53 13° SSW 20:27:53 13° SSW visible
22 Jan 9.4 20:31:58 10° SW 20:33:04 17° SW 20:33:04 17° SW visible
23 Jan 8.9 18:58:41 10° SSE 19:00:33 13° SE 19:01:59 11° ESE visible
23 Jan 9.6 20:37:12 10° WSW 20:38:20 17° WSW 20:38:20 17° WSW visible
24 Jan 8.1 19:01:57 10° S 19:05:31 26° SE 19:07:20 19° E visible
24 Jan 9.9 20:43:13 10° W 20:43:41 12° W 20:43:41 12° W visible
25 Jan 7.0 19:06:14 10° SSW 19:10:27 57° SE 19:12:44 23° ENE visible
26 Jan 7.2 19:11:05 10° SW 19:15:20 62° NW 19:18:12 18° NNE visible
27 Jan 9.7 05:35:07 10° NNE 05:36:35 11° NE 05:38:05 10° ENE visible
27 Jan 8.6 19:16:31 10° WSW 19:20:10 28° NW 19:23:39 10° N visible
